User: anonymous   Login
Location: Newark
(44.3333°N, 7.6167°E)
Time: 14:09:49
(UTC+00:00)
Language:

ZACube-1 - Orbit

View from above orbital plane
View from above orbital plane
View from above satellite
View from above satellite

Ground track
Ground track

The orbit data is extracted from the following two-line orbital elements,

1 39417U 13066B   20017.84520353  .00000171  00000-0  27703-4 0  9992
2 39417  97.5615  24.3442 0060131  55.9427 304.7475 14.81207802332596
Epoch (UTC): 17 January 2020 20:17:05
Eccentricity: 0.0060131
inclination: 97.5615°
perigee height: 583 km
apogee height: 667 km
right ascension of ascending node: 24.3442°
argument of perigee: 55.9427°
revolutions per day: 14.81207802
mean anomaly at epoch: 304.7475°
orbit number at epoch: 33259

The dashed part of the orbit path shows where the satellite is in the earth's shadow,  

DLR